Skip Page Navigation
NASA JPL Caltech
NASA Logo - Jet Propulsion Laboratory + View the NASA Portal
+ Near-Earth Object (NEO) Program
Search JPL
JPL Home Earth Solar System Stars & Galaxies Technology
JPL Solar System Dynamics
BODIES ORBITS EPHEMERIDES TOOLS PHYSICAL DATA DISCOVERY FAQ SITE MAP
JPL Small-Body Database Browser
Search: [ help ]  
(2001 TA2)
Classification: Apollo [NEO, PHA]          SPK-ID: 3092374
Ephemeris | Orbit Diagram | Orbital Elements | Physical Parameters | Close-Approach Data ]

[ hide orbit diagram ]
Orbit Diagram
Note: Make sure you have Java enabled on your browser to see the applet. This applet is provided as a 3D orbit visualization tool. The applet was implemented using 2-body methods, and hence should not be used for determining accurate long-term trajectories (over several years or decades) or planetary encounter circumstances. For accurate long-term ephemerides, please instead use our Horizons system.
Orbit Viewer

Additional Notes: the orbits shown in the applet are color coded. The planets are white lines, and the asteroid/comet is a blue line. The bright white line indicates the portion of the orbit that is above the ecliptic plane, and the darker portion is below the ecliptic plane. Likewise for the asteroid/comet orbit, the light blue indicates the portion above the ecliptic plane, and the dark blue the portion below the ecliptic plane.

Orbit Viewer applet originally written and kindly provided by Osamu Ajiki (AstroArts), and further modified by Ron Baalke (JPL).


Orbital Elements at Epoch 2456400.5 (2013-Apr-18.0) TDB
Reference: JPL 16 (heliocentric ecliptic J2000)
 Element Value Uncertainty (1-sigma)   Units 
e .6479369089073497 1.4351e-07  
a 1.769775856827844 1.916e-08 AU
q .6230727586959545 2.605e-07 AU
i 3.27195399277202 2.0794e-05 deg
node 50.53585911184559 0.00028921 deg
peri 227.2033874435755 0.00030379 deg
M 347.1347812356952 1.8132e-06 deg
tp 2456431.231977098324
(2013-May-18.73197710)
3.8896e-06 JED
period 859.9551984372591
2.35
1.3965e-05
3.823e-08
d
yr
n .418626459441381 6.7982e-09 deg/d
Q 2.916478954959733 3.1575e-08 AU
  Orbit Determination Parameters
   # obs. used (total)      127  
   # delay obs. used      1  
   # Doppler obs. used      1  
   data-arc span      4194 days (11.48 yr)  
   first obs. used      2001-10-11  
   last obs. used      2013-04-05  
   planetary ephem.      DE405  
   SB-pert. ephem.      SB405-CPV-2  
   condition code      0  
   fit RMS      .36288  
   data source      ORB  
   producer      Otto Matic  
   solution date      2013-Apr-29 11:42:33  

Additional Information
 Earth MOID = .0367821 AU 
 T_jup = 3.827 
[ show covariance matrix ]

Ephemeris | Orbit Diagram | Orbital Elements | Physical Parameters | Close-Approach Data ]

Physical Parameter Table
Parameter Symbol Value Units Sigma Reference Notes
absolute magnitude H 21.659 mag .71611 11 autocmod 2.5b

[ show close-approach data ]
Alternate Designations
 2001 TA2 = 2013 FH 
Ephemeris | Orbit Diagram | Orbital Elements | Physical Parameters | Close-Approach Data ]
ABOUT SSD CREDITS/AWARDS PRIVACY/COPYRIGHT GLOSSARY LINKS
FirstGov 2013-May-26 03:03 UT
(server date/time)  
NASA Home Page
Site Manager:   Donald K. Yeomans
Webmaster  Alan B. Chamberlin